When you browse on this site, cookies collect data to enhance your experience and personalize the content and advertising you see.
Visit our Privacy Policy to learn more. By continuing to use the site, you agree to this use of cookies and data.
  • în România
  • Lista ţărilor
  • Pe 7 zile
  • Temperatura apei
  • Hartă satelitară
  • Meteo pe hartă
  • Widget-uri
  • user-avatar
    Intrare

    Meteo pe oră la Wzorki

    Astăzi, 20 Februarie, Miercuri

    Timp Temperatura Precipitaţii Vânt Presiune Umiditate
    00:00 +5°C° 0.5 mm 5 m/s 737 mmHg 84%
    01:00 +5°C° 0.5 mm 5 m/s 737 mmHg 86%
    02:00 +3°C° 0 mm 5 m/s 737 mmHg 87%
    03:00 +2°C° 0 mm 5 m/s 737 mmHg 88%
    04:00 +2°C° 0 mm 5 m/s 737 mmHg 90%
    05:00 +1°C° 0 mm 5 m/s 737 mmHg 89%
    06:00 +1°C° 0 mm 5 m/s 738 mmHg 88%
    07:00 +1°C° 0 mm 5 m/s 738 mmHg 87%
    08:00 +2°C° 0 mm 6 m/s 738 mmHg 83%
    09:00 +2°C° 0 mm 6 m/s 738 mmHg 80%
    10:00 +3°C° 0 mm 6 m/s 739 mmHg 76%
    11:00 +3°C° 0 mm 6 m/s 739 mmHg 74%
    12:00 +3°C° 0 mm 6 m/s 739 mmHg 72%
    13:00 +3°C° 0 mm 6 m/s 739 mmHg 71%
    14:00 +3°C° 0 mm 6 m/s 739 mmHg 71%
    15:00 +3°C° 0 mm 6 m/s 740 mmHg 71%
    16:00 +3°C° 0 mm 5 m/s 740 mmHg 71%
    17:00 +3°C° 0 mm 5 m/s 740 mmHg 73%
    18:00 +4°C° 0 mm 4 m/s 740 mmHg 76%
    19:00 +3°C° 0 mm 4 m/s 741 mmHg 78%
    20:00 +3°C° 0 mm 4 m/s 741 mmHg 79%
    21:00 +3°C° 0 mm 4 m/s 741 mmHg 79%
    22:00 +3°C° 0 mm 4 m/s 741 mmHg 79%
    23:00 +3°C° 0 mm 4 m/s 742 mmHg 80%

    Mâine, 21 Februarie, Joi

    Timp Temperatura Precipitaţii Vânt Presiune Umiditate
    00:00 +3°C° 0 mm 4 m/s 742 mmHg 81%
    01:00 +3°C° 0 mm 4 m/s 742 mmHg 82%
    02:00 +3°C° 0 mm 4 m/s 742 mmHg 83%
    03:00 +3°C° 0 mm 4 m/s 742 mmHg 83%
    04:00 +3°C° 0 mm 4 m/s 742 mmHg 84%
    05:00 +1°C° 0 mm 4 m/s 742 mmHg 83%
    06:00 +1°C° 0 mm 4 m/s 742 mmHg 82%
    07:00 +1°C° 0 mm 4 m/s 742 mmHg 81%
    08:00 +2°C° 0 mm 5 m/s 742 mmHg 76%
    09:00 +3°C° 0 mm 5 m/s 742 mmHg 71%
    10:00 +4°C° 0 mm 6 m/s 742 mmHg 66%
    11:00 +4°C° 0.2 mm 6 m/s 741 mmHg 66%
    12:00 +5°C° 0.2 mm 6 m/s 741 mmHg 66%
    13:00 +5°C° 0.2 mm 7 m/s 741 mmHg 65%
    14:00 +5°C° 0.5 mm 7 m/s 740 mmHg 68%
    15:00 +5°C° 0.5 mm 7 m/s 740 mmHg 71%
    16:00 +4°C° 0.5 mm 7 m/s 740 mmHg 73%
    17:00 +4°C° 0.4 mm 7 m/s 740 mmHg 75%
    18:00 +4°C° 0.4 mm 7 m/s 740 mmHg 77%
    19:00 +4°C° 0.4 mm 7 m/s 740 mmHg 79%
    20:00 +4°C° 0.4 mm 7 m/s 739 mmHg 81%
    21:00 +4°C° 0.4 mm 7 m/s 739 mmHg 82%
    22:00 +4°C° 0.4 mm 7 m/s 739 mmHg 84%
    23:00 +4°C° 0.5 mm 6 m/s 739 mmHg 86%

    Poimâine, 22 Februarie, Vineri

    Timp Temperatura Precipitaţii Vânt Presiune Umiditate
    00:00 +4°C° 0.5 mm 6 m/s 739 mmHg 88%
    01:00 +4°C° 0.5 mm 6 m/s 739 mmHg 89%
    02:00 +4°C° 0.4 mm 6 m/s 738 mmHg 89%
    03:00 +4°C° 0.4 mm 6 m/s 738 mmHg 89%
    04:00 +4°C° 0.4 mm 6 m/s 738 mmHg 90%
    05:00 +4°C° 0.8 mm 7 m/s 739 mmHg 88%
    06:00 +3°C° 0.8 mm 7 m/s 739 mmHg 87%
    07:00 +3°C° 0.8 mm 7 m/s 740 mmHg 85%
    08:00 0°C° 0.2 mm 7 m/s 741 mmHg 81%
    09:00 -1°C° 0.2 mm 7 m/s 742 mmHg 78%
    10:00 -2°C° 0.2 mm 6 m/s 743 mmHg 74%
    11:00 -2°C° 0 mm 6 m/s 744 mmHg 67%
    12:00 -2°C° 0 mm 6 m/s 745 mmHg 61%
    13:00 0°C° 0 mm 5 m/s 746 mmHg 55%
    14:00 -1°C° 0 mm 5 m/s 747 mmHg 54%
    15:00 -3°C° 0 mm 6 m/s 747 mmHg 54%
    16:00 -3°C° 0 mm 6 m/s 748 mmHg 54%
    17:00 -4°C° 0 mm 5 m/s 749 mmHg 56%
    18:00 -5°C° 0 mm 5 m/s 749 mmHg 58%
    19:00 -6°C° 0 mm 5 m/s 750 mmHg 60%
    20:00 -6°C° 0 mm 5 m/s 750 mmHg 58%
    21:00 -6°C° 0 mm 5 m/s 751 mmHg 56%
    22:00 -7°C° 0 mm 4 m/s 752 mmHg 54%
    23:00 -7°C° 0 mm 4 m/s 752 mmHg 51%

    23 Februarie, Sâmbătă

    Timp Temperatura Precipitaţii Vânt Presiune Umiditate
    00:00 -7°C° 0 mm 4 m/s 752 mmHg 49%
    01:00 -7°C° 0 mm 4 m/s 753 mmHg 46%
    02:00 -6°C° 0 mm 3 m/s 753 mmHg 45%
    03:00 -6°C° 0 mm 3 m/s 753 mmHg 44%
    04:00 -6°C° 0 mm 3 m/s 753 mmHg 42%
    05:00 -5°C° 0 mm 2 m/s 753 mmHg 42%
    06:00 -5°C° 0 mm 2 m/s 753 mmHg 42%
    07:00 -5°C° 0 mm 2 m/s 754 mmHg 42%
    08:00 -5°C° 0 mm 2 m/s 754 mmHg 38%
    09:00 -4°C° 0 mm 2 m/s 754 mmHg 34%
    10:00 -4°C° 0 mm 3 m/s 754 mmHg 29%
    11:00 -2°C° 0 mm 3 m/s 754 mmHg 27%
    12:00 -1°C° 0 mm 2 m/s 754 mmHg 25%
    13:00 -1°C° 0 mm 2 m/s 754 mmHg 23%
    14:00 -1°C° 0 mm 2 m/s 753 mmHg 24%
    15:00 -1°C° 0 mm 2 m/s 753 mmHg 26%
    16:00 -1°C° 0 mm 2 m/s 753 mmHg 28%
    17:00 -2°C° 0 mm 2 m/s 753 mmHg 31%
    18:00 -1°C° 0 mm 1 m/s 753 mmHg 34%
    19:00 -1°C° 0 mm 1 m/s 753 mmHg 37%
    20:00 -2°C° 0 mm 1 m/s 753 mmHg 38%
    21:00 -2°C° 0 mm 1 m/s 753 mmHg 38%
    22:00 -2°C° 0 mm 1 m/s 753 mmHg 38%
    23:00 -2°C° 0 mm 1 m/s 753 mmHg 38%

    24 Februarie, Duminică

    Timp Temperatura Precipitaţii Vânt Presiune Umiditate
    00:00 -4°C° 0 mm 2 m/s 752 mmHg 37%
    01:00 -4°C° 0 mm 2 m/s 752 mmHg 37%
    02:00 -4°C° 0 mm 2 m/s 752 mmHg 37%
    03:00 -4°C° 0 mm 2 m/s 752 mmHg 37%
    04:00 -4°C° 0 mm 2 m/s 751 mmHg 37%
    05:00 -3°C° 0 mm 2 m/s 751 mmHg 36%
    06:00 -3°C° 0 mm 2 m/s 751 mmHg 35%
    07:00 -2°C° 0 mm 2 m/s 751 mmHg 34%
    08:00 -1°C° 0 mm 3 m/s 750 mmHg 32%
    09:00 0°C° 0 mm 3 m/s 750 mmHg 30%
    10:00 +1°C° 0 mm 3 m/s 750 mmHg 27%
    11:00 +1°C° 0 mm 4 m/s 750 mmHg 28%
    12:00 +3°C° 0 mm 4 m/s 749 mmHg 28%
    13:00 +4°C° 0 mm 4 m/s 749 mmHg 28%
    14:00 +3°C° 0 mm 4 m/s 749 mmHg 34%
    15:00 +3°C° 0 mm 3 m/s 748 mmHg 40%
    16:00 +4°C° 0 mm 2 m/s 748 mmHg 45%
    17:00 +3°C° 0 mm 2 m/s 748 mmHg 49%
    18:00 +2°C° 0 mm 2 m/s 748 mmHg 53%
    19:00 +1°C° 0 mm 2 m/s 748 mmHg 57%
    20:00 +1°C° 0 mm 2 m/s 748 mmHg 59%
    21:00 +1°C° 0 mm 2 m/s 748 mmHg 61%
    22:00 -1°C° 0 mm 2 m/s 748 mmHg 63%
    23:00 +1°C° 0 mm 1 m/s 748 mmHg 63%

    25 Februarie, Luni

    Timp Temperatura Precipitaţii Vânt Presiune Umiditate
    00:00 +1°C° 0 mm 1 m/s 748 mmHg 64%
    01:00 +1°C° 0 mm 1 m/s 748 mmHg 64%
    02:00 +1°C° 0 mm 1 m/s 748 mmHg 64%
    03:00 +1°C° 0 mm 1 m/s 748 mmHg 65%
    04:00 +1°C° 0 mm 1 m/s 747 mmHg 65%
    05:00 -1°C° 0 mm 2 m/s 747 mmHg 66%
    06:00 -1°C° 0 mm 2 m/s 747 mmHg 67%
    07:00 -1°C° 0 mm 2 m/s 747 mmHg 67%
    08:00 +1°C° 0 mm 2 m/s 747 mmHg 64%
    09:00 +2°C° 0 mm 3 m/s 747 mmHg 60%
    10:00 +3°C° 0 mm 3 m/s 748 mmHg 56%
    11:00 +4°C° 0 mm 3 m/s 747 mmHg 56%
    12:00 +5°C° 0 mm 3 m/s 747 mmHg 55%
    13:00 +7°C° 0 mm 3 m/s 747 mmHg 54%
    14:00 +6°C° 0 mm 4 m/s 747 mmHg 57%
    15:00 +6°C° 0 mm 4 m/s 746 mmHg 60%
    16:00 +5°C° 0 mm 4 m/s 746 mmHg 62%
    17:00 +4°C° 0 mm 4 m/s 747 mmHg 70%
    18:00 +3°C° 0 mm 3 m/s 747 mmHg 78%
    19:00 +2°C° 0 mm 3 m/s 747 mmHg 85%
    20:00 +2°C° 0 mm 3 m/s 747 mmHg 88%
    21:00 +1°C° 0 mm 3 m/s 747 mmHg 91%
    22:00 +1°C° 0 mm 3 m/s 747 mmHg 94%
    23:00 +1°C° 0 mm 3 m/s 747 mmHg 93%
    Arată mai mult